This is the latest recevied weather packets stored in our database for station/object K4CRS-13. If no packets are shown the sender has not sent any weather packets the latest 10 day(s).
| Time | Temp. | Humidity | Pressure | Rain* | Wind** | Luminosity | Snow |
|---|---|---|---|---|---|---|---|
| 1777584728 | 18.33° C | 52% | 1048.6 hPa | 0 mm | - | 353 W/m² | - |
| 1777584427 | 18.33° C | 55% | 1048.6 hPa | 0 mm | - | 386 W/m² | - |
| 1777584123 | 17.78° C | 54% | 1048.3 hPa | 0 mm | - | 287 W/m² | - |
| 1777583822 | 18.33° C | 54% | 1048.8 hPa | 0 mm | - | 337 W/m² | - |
| 1777583518 | 17.78° C | 54% | 1048.8 hPa | 0 mm | - | 284 W/m² | - |
| 1777583217 | 17.78° C | 54% | 1048.8 hPa | 0 mm | - | 267 W/m² | - |
| 1777582912 | 18.33° C | 54% | 1049 hPa | 0 mm | - | 272 W/m² | - |
| 1777582611 | 18.33° C | 52% | 1048.7 hPa | 0 mm | - | 282 W/m² | - |
| 1777582311 | 18.33° C | 55% | 1048.8 hPa | 0 mm | - | 295 W/m² | - |
| 1777582009 | 18.33° C | 55% | 1048.6 hPa | 0 mm | - | 252 W/m² | - |
| 1777581704 | 18.33° C | 52% | 1049 hPa | 0 mm | - | 386 W/m² | - |
| 1777581403 | 18.89° C | 51% | 1048.9 hPa | 0 mm | - | 532 W/m² | - |
| 1777581098 | 18.33° C | 53% | 1049.1 hPa | 0 mm | - | 524 W/m² | - |
| 1777580797 | 18.33° C | 55% | 1049.1 hPa | 0 mm | - | 505 W/m² | - |
| 1777580494 | 18.33° C | 53% | 1049.1 hPa | 0 mm | - | 463 W/m² | - |
| 1777580189 | 18.33° C | 51% | 1049.1 hPa | 0 mm | - | 507 W/m² | - |
| 1777579886 | 18.33° C | 54% | 1049.2 hPa | 0 mm | - | 524 W/m² | - |
| 1777579586 | 18.33° C | 54% | 1049.6 hPa | 0 mm | - | 643 W/m² | - |
| 1777579286 | 18.33° C | 52% | 1049.5 hPa | 0 mm | - | 573 W/m² | - |
| 1777578982 | 18.33° C | 52% | 1049.5 hPa | 0 mm | - | 601 W/m² | - |
| 1777578677 | 18.33° C | 55% | 1049.7 hPa | 0 mm | - | 536 W/m² | - |
| 1777578376 | 18.33° C | 55% | 1049.4 hPa | 0 mm | - | 599 W/m² | - |
| 1777578072 | 17.78° C | 58% | 1049.6 hPa | 0 mm | - | 519 W/m² | - |
| 1777577768 | 17.78° C | 57% | 1049.6 hPa | 0 mm | - | 572 W/m² | - |
| 1777577464 | 17.78° C | 56% | 1049.5 hPa | 0 mm | - | 722 W/m² | - |
* Rain latest hour (hover to see other rain measurements)
** Current wind speed in m/s (hover to see current wind gust speed)